Location: Rochester
(43.1610°N, 77.6109°W)
Time: 09:40:11
(UTC-05:00)

CUTE 1.7 + AOD 2 - Pass Details

Date: 24 October 2021
Orbit: 592 x 611 km, 97.6° (Epoch: 04 December)

Event Time Altitude Azimuth Distance (km) Brightness Sun altitude
Rises 05:32:42 0° 10° (N) 2,885 ? -23.0°
Reaches altitude 10° 05:34:54 10° 9° (N) 1,975 ? -22.6°
Maximum altitude 05:39:11 76° 284° (WNW) 632 ? -21.8°
Enters shadow 05:40:18 48° 211° (SSW) 799 ? -21.6°
